User: anonymous   Login
Location: Brno
(49.2000°N, 16.6330°E)
Time: 01:52:35
(UTC+01:00)
Language:

Cosmos 332 Rocket - Orbit

View from above orbital plane
View from above orbital plane
View from above satellite
View from above satellite

Ground track
Ground track

The orbit data is extracted from the following two-line orbital elements,

1 04370U 70028B   14325.83796604  .00000810  00000-0  17744-3 0  8005
2 04370 074.0415 078.3863 0016580 239.1610 253.2962 14.59292527875076
Epoch (UTC): 21 November 2014 20:06:40
Eccentricity: 0.0016580
inclination: 74.0415°
perigee height: 684 km
apogee height: 707 km
right ascension of ascending node: 78.3863°
argument of perigee: 239.1610°
revolutions per day: 14.59292527
mean anomaly at epoch: 253.2962°
orbit number at epoch: 87507

The dashed part of the orbit path shows where the satellite is in the earth's shadow,  

DLR